World > North America > United States > Alabama

Hourly Jemison, AL Regional Weather

Feedback E-mail the Weather

Latest News

Jemison, AL Weather Maps

°F °C°F °C
Jemison Weather Map
UTC Time: 5/26/2022, 13:37
Your Time:

Jemison, AL Regional Weather

Expires:202205261400;;607193
ASUS44 KBMX 261310
RWRAL 
             
ALABAMA REGIONAL WEATHER ROUNDUP
NATIONAL WEATHER SERVICE BIRMINGHAM AL
800 AM CDT THU MAY 26 2022

NOTE: "FAIR" INDICATES FEW OR NO CLOUDS BELOW 12,000 FEET
WITH NO SIGNIFICANT WEATHER AND/OR OBSTRUCTIONS TO VISIBILITY.

THE REMARK "TC" DENOTES TEMPERATURE IN DEGREES CELSIUS.


ALZ015-024>026-033>036-041>044-261400-
CENTRAL ALABAMA
  
CITY           SKY/WX    TMP DP  RH WIND       PRES   REMARKS
BIRMINGHAM     CLOUDY    69  66  90 S9G20     30.02R                  
MONTGOMERY     PTSUNNY   70  66  87 SE7       30.00F                  
SHELBY CO ARPT CLOUDY    69  66  90 S8        30.00R                  
MAXWELL AFB    PTSUNNY   70  66  88 E8        29.98F                  
GREENVILLE     HVY RAIN  65  65 100 S5        30.01R VSB 1            
SELMA          DRIZZLE   70  68  94 SE9       29.98S                  
PRATTVILLE     PTSUNNY   69  68  99 CALM      30.01S                  
BESSEMER       CLOUDY    67  67 100 VRB6      30.01R                  
TALLADEGA      FAIR     N/A N/A N/A S9        30.03R                  
PELL CITY      CLOUDY    70  66  88 S7        30.02S                  
SYLACAUGA      CLOUDY    69  66  88 S7G16     30.02S                  
$$
 

SKY/WX - Weather  TMP - Temperature  DP - Dew Point  RH - Humidity
WIND - Wind Direction/Speed PRES - Barometric Pressure VSB - Visibility
WCI - Wind Chill Index E13G22 Wind - East Wind 13 mph/Gusts of 22 mph

Trending Headlines

Jemison Radar Loop



Jemison Quick Facts


National Two Day Weather Forecast


E-mail the Jemison Weather Forecast

Voice your opinion or tell us about page issues...